Colby, KS

3:16 PM CST on February 20, 2017 (GMT -0600)
Shaltz

Weather History for KCBK - March, 2013

Change the Weather History Date:

Sunday, March 3, 2013

  Actual Average (KGLD) Record (KGLD)
Temperature  
Mean Temperature 48 °F -  
Max Temperature 64 °F 45 °F 74 °F (1936)
Min Temperature 32 °F 21 °F -20 °F (1960)
Degree Days  
Heating Degree Days 17    
Moisture  
Dew Point 37 °F    
Average Humidity 77    
Maximum Humidity 100    
Minimum Humidity 40    
Precipitation  
Precipitation 0.00 in - - ()
Sea Level Pressure  
Sea Level Pressure 29.77 in    
Wind  
Wind Speed 7 mph (WSW)    
Max Wind Speed 9 mph    
Max Gust Speed -    
Visibility 10 miles    
Events      
Averages and records for this station are not official NWS values.
T = Trace of Precipitation, MM = Missing Value Source: NWS Daily Summary

Daily Weather History Graph

Daily Weather History Graph

Search for Another Location

Airport or City:

Trip Planner

Search our weather history database for the weather conditions in past years. The results will help you decide how hot, cold, wet, or windy it might be!

Date:

Astronomy

Mar. 03, 2013 Rise Set
Actual Time 7:13 AM CST 6:39 PM CST
Civil Twilight 6:46 AM CST 7:05 PM CST
Nautical Twilight 6:15 AM CST 7:37 PM CST
Astronomical Twilight 5:44 AM CST 8:08 PM CST
Moon 12:17 AM CST (3/3) 10:32 AM CST (3/3)
Length of Visible Light 12h 19m
Length of Day
11h 25m
Waning Gibbous, 63% of the Moon is Illuminated
Mar 3
Waning Gibbous
Mar 4
Last Quarter
Mar 11
New
Mar 19
First Quarter
Mar 27
Full

Hourly Weather History & Observations

Time (CST) Temp. Windchill Dew Point Humidity Pressure Visibility Wind Dir Wind Speed Gust Speed Precip Events Conditions
12:15 AM 33.8 °F 27.0 °F 33.8 °F 100% 30.06 in 10.0 mi West 8.1 mph - N/A   Clear
12:35 AM 33.8 °F 26.4 °F 32.0 °F 93% 30.04 in 10.0 mi West 9.2 mph - N/A   Clear
12:55 AM 33.8 °F 27.0 °F 32.0 °F 93% 30.03 in 10.0 mi West 8.1 mph - N/A   Clear
1:15 AM 33.8 °F 26.4 °F 32.0 °F 93% 30.03 in 10.0 mi West 9.2 mph - N/A   Clear
1:55 AM 33.8 °F 26.4 °F 32.0 °F 93% 30.02 in 10.0 mi West 9.2 mph - N/A   Clear
2:15 AM 33.8 °F 26.4 °F 32.0 °F 93% 30.01 in 10.0 mi West 9.2 mph - N/A   Clear
2:35 AM 33.8 °F 27.0 °F 32.0 °F 93% 29.99 in 10.0 mi West 8.1 mph - N/A   Clear
2:55 AM 33.8 °F 26.4 °F 32.0 °F 93% 29.98 in 10.0 mi West 9.2 mph - N/A   Clear
3:15 AM 33.8 °F 27.7 °F 32.0 °F 93% 29.97 in 10.0 mi West 6.9 mph - N/A   Clear
3:35 AM 33.8 °F 27.0 °F 32.0 °F 93% 29.95 in 10.0 mi West 8.1 mph - N/A   Clear
3:55 AM 33.8 °F 27.0 °F 32.0 °F 93% 29.95 in 10.0 mi West 8.1 mph - N/A   Clear
4:15 AM 32.0 °F 24.8 °F 32.0 °F 100% 29.93 in 10.0 mi WSW 8.1 mph - N/A   Clear
4:35 AM 32.0 °F 24.8 °F 32.0 °F 100% 29.92 in 10.0 mi WSW 8.1 mph - N/A   Clear
4:55 AM 32.0 °F 24.2 °F 32.0 °F 100% 29.91 in 10.0 mi SW 9.2 mph - N/A   Clear
5:15 AM 32.0 °F 24.8 °F 32.0 °F 100% 29.91 in 10.0 mi WSW 8.1 mph - N/A   Clear
5:35 AM 32.0 °F 24.8 °F 32.0 °F 100% 29.90 in 10.0 mi WSW 8.1 mph - N/A   Clear
6:15 AM 32.0 °F 26.4 °F 32.0 °F 100% 29.88 in 10.0 mi WSW 5.8 mph - N/A   Clear
6:35 AM 32.0 °F 24.8 °F 32.0 °F 100% 29.88 in 10.0 mi West 8.1 mph - N/A   Clear
6:55 AM 33.8 °F 27.0 °F 32.0 °F 93% 29.87 in 10.0 mi WSW 8.1 mph - N/A   Clear
7:15 AM 32.0 °F 26.4 °F 32.0 °F 100% 29.86 in 10.0 mi WSW 5.8 mph - N/A   Clear
7:35 AM 32.0 °F 26.4 °F 32.0 °F 100% 29.84 in 10.0 mi SW 5.8 mph - N/A   Clear
7:55 AM 32.0 °F 25.6 °F 32.0 °F 100% 29.84 in 10.0 mi West 6.9 mph - N/A   Clear
8:15 AM 33.8 °F 27.7 °F 32.0 °F 93% 29.84 in 10.0 mi West 6.9 mph - N/A   Clear
8:35 AM 35.6 °F 31.7 °F 32.0 °F 87% 29.84 in 10.0 mi West 4.6 mph - N/A   Clear
8:55 AM 35.6 °F 30.7 °F 33.8 °F 93% 29.83 in 10.0 mi WSW 5.8 mph - N/A   Clear
9:15 AM 37.4 °F - 33.8 °F 87% 29.82 in 10.0 mi Calm Calm - N/A   Clear
9:55 AM 42.8 °F 40.1 °F 37.4 °F 81% 29.80 in 10.0 mi SW 4.6 mph - N/A   Clear
10:15 AM 50.0 °F - 37.4 °F 62% 29.79 in 10.0 mi SSW 6.9 mph - N/A   Clear
10:35 AM 51.8 °F - 37.4 °F 58% 29.79 in 10.0 mi SSW 5.8 mph - N/A   Clear
10:55 AM 55.4 °F - 39.2 °F 54% 29.78 in 10.0 mi SSW 5.8 mph - N/A   Clear
11:15 AM 55.4 °F - 37.4 °F 51% 29.77 in 10.0 mi SSW 6.9 mph - N/A   Clear
11:35 AM 55.4 °F - 39.2 °F 54% 29.76 in 10.0 mi SSW 8.1 mph - N/A   Clear
11:55 AM 57.2 °F - 41.0 °F 55% 29.75 in 10.0 mi SSW 9.2 mph - N/A   Clear
12:15 PM 55.4 °F - 37.4 °F 51% 29.74 in 10.0 mi South 8.1 mph - N/A   Clear
12:35 PM 55.4 °F - 37.4 °F 51% 29.73 in 10.0 mi South 5.8 mph - N/A   Clear
12:55 PM 55.4 °F - 39.2 °F 54% 29.72 in 10.0 mi SW 4.6 mph - N/A   Clear
1:15 PM 57.2 °F - 41.0 °F 55% 29.71 in 10.0 mi SW 4.6 mph - N/A   Clear
1:35 PM 59.0 °F - 42.8 °F 55% 29.70 in 10.0 mi SW 3.5 mph - N/A   Clear
1:55 PM 60.8 °F - 41.0 °F 48% 29.68 in 10.0 mi NW 5.8 mph - N/A   Clear
2:15 PM 64.4 °F - 39.2 °F 40% 29.66 in 10.0 mi North 4.6 mph - N/A   Clear
2:35 PM 64.4 °F - 39.2 °F 40% 29.65 in 10.0 mi North 6.9 mph - N/A   Clear
2:55 PM 64.4 °F - 39.2 °F 40% 29.65 in 10.0 mi North 4.6 mph - N/A   Clear
3:35 PM 60.8 °F - 44.6 °F 55% 29.64 in 10.0 mi SE 6.9 mph - N/A   Clear
3:55 PM 62.6 °F - 42.8 °F 48% 29.64 in 10.0 mi ESE 4.6 mph - N/A   Clear
4:15 PM 62.6 °F - 41.0 °F 45% 29.64 in 10.0 mi ENE 5.8 mph - N/A   Clear
4:35 PM 62.6 °F - 41.0 °F 45% 29.63 in 10.0 mi East 3.5 mph - N/A   Clear
4:55 PM 62.6 °F - 39.2 °F 42% 29.63 in 10.0 mi NE 3.5 mph - N/A   Clear
5:15 PM 62.6 °F - 41.0 °F 45% 29.63 in 10.0 mi East 4.6 mph - N/A   Clear
5:35 PM 59.0 °F - 44.6 °F 59% 29.63 in 10.0 mi ESE 6.9 mph - N/A   Clear
5:55 PM 55.4 °F - 42.8 °F 63% 29.64 in 10.0 mi South 4.6 mph - N/A   Clear
6:15 PM 55.4 °F - 42.8 °F 63% 29.63 in 10.0 mi SE 4.6 mph - N/A   Clear
6:35 PM 53.6 °F - 41.0 °F 62% 29.64 in 10.0 mi South 3.5 mph - N/A   Clear
6:55 PM 51.8 °F - 41.0 °F 67% 29.64 in 10.0 mi Calm Calm - N/A   Clear
7:15 PM 50.0 °F - 41.0 °F 71% 29.63 in 10.0 mi Calm Calm - N/A   Clear
7:35 PM 50.0 °F - 41.0 °F 71% 29.63 in 10.0 mi Calm Calm - N/A   Clear
7:55 PM 46.4 °F 44.3 °F 41.0 °F 81% 29.64 in 10.0 mi SSW 4.6 mph - N/A   Clear
8:15 PM 44.6 °F 43.1 °F 41.0 °F 87% 29.63 in 10.0 mi South 3.5 mph - N/A   Clear
8:35 PM 46.4 °F - 41.0 °F 81% 29.63 in 10.0 mi Calm Calm - N/A   Clear
8:55 PM 46.4 °F - 41.0 °F 81% 29.63 in 10.0 mi Calm Calm - N/A   Clear
9:15 PM 42.8 °F 40.1 °F 39.2 °F 87% 29.62 in 10.0 mi SW 4.6 mph - N/A   Clear
9:35 PM 41.0 °F 37.1 °F 37.4 °F 87% 29.63 in 10.0 mi WSW 5.8 mph - N/A   Clear
9:55 PM 41.0 °F 37.1 °F 39.2 °F 93% 29.63 in 10.0 mi West 5.8 mph - N/A   Clear
10:15 PM 41.0 °F 35.8 °F 37.4 °F 87% 29.63 in 10.0 mi West 8.1 mph - N/A   Clear
10:35 PM 41.0 °F 36.4 °F 37.4 °F 87% 29.62 in 10.0 mi West 6.9 mph - N/A   Clear
10:55 PM 39.2 °F 34.2 °F 37.4 °F 93% 29.62 in 10.0 mi WSW 6.9 mph - N/A   Clear
11:15 PM 37.4 °F 31.4 °F 35.6 °F 93% 29.62 in 10.0 mi West 8.1 mph - N/A   Clear
11:35 PM 35.6 °F 29.9 °F 35.6 °F 100% 29.63 in 10.0 mi WSW 6.9 mph - N/A   Clear
11:55 PM 37.4 °F 31.4 °F 35.6 °F 93% 29.63 in 10.0 mi West 8.1 mph - N/A   Clear